Location: Byszew
(52.1813°N, 19.2693°E)
Time: 01:01:26
(UTC+00:00)

Cosmos 1869 Rocket - Pass Details

Date: 03 March 2021
Orbit: 605 x 633 km, 82.5° (Epoch: 11 April)

Event Time Altitude Azimuth Distance (km) Brightness Sun altitude
Rises 18:14:31 0° 175° (S) 2,864 6.8 -17.3°
Reaches altitude 10° 18:16:45 10° 170° (S) 1,968 5.9 -17.6°
Maximum altitude 18:20:58 52° 95° (E) 772 3.6 -18.3°
Drops below altitude 10° 18:25:16 10° 19° (NNE) 2,001 6.1 -18.9°
Sets 18:27:34 0° 15° (NNE) 2,917 7.0 -19.3°
